{"data":{"norad_id":69767,"intl_designator":"2026-151E","name":"KUIPER-00589","alt_names":[],"object_type":"PAYLOAD","status":"ACTIVE","operator":null,"country":"US","launch_date":"2026-07-02","launch_site_code":"AFETR","launch_vehicle":null,"mission":null,"orbit_class":"UNKNOWN","rcs_meters":null,"size_class":null,"mass_kg":null,"dimensions":null,"purposes":[],"wikipedia_slug":null,"has_3d_model":false,"image_url":null,"decayed_at":null,"tle_current":{"epoch":"2026-09-19T22:59:31.352928Z","epoch_age_seconds":72308,"freshness":"FRESH","line1":"1 69767U 26151E   26262.95800177  .00001364  00000+0  22447-3 0  9990","line2":"2 69767  51.9000 237.1379 0002885  62.0528 298.0725 14.76534243 12016","mean_motion":14.76534243,"eccentricity":0.0002885,"inclination_deg":51.9,"raan_deg":237.1379,"arg_perigee_deg":62.0528,"mean_anomaly_deg":298.0725,"bstar":0.00022447,"rev_number":1201,"period_min":97.525675874217,"perigee_km":638.26042323626,"apogee_km":642.31005286761,"semimajor_km":7018.4222380519,"source":"CELESTRAK","updated_at":"2026-09-20T09:00:25.088534Z"}}}